Terminal Aerodrome Forecast
Issued by NWS

Home | Current Version | Previous Version | Text Only | Print | Product List | Glossary On
Versions: 1 2 3 4 5 6 7 8 9 10 11 12 13 14 15 16 17 18 19 20 21 22 23
871
FTUS41 KBTV 220851 AAA
TAFMSS
TAF AMD
KMSS 220851Z 2209/2306 06006KT 3SM BR OVC002
      TEMPO 2209/2210 VRB03KT 2SM BR OVC004
     FM221500 06006KT 6SM BR OVC007
     FM221900 06010G16KT P6SM OVC020=

USA.gov is the U.S. government's official web portal to all federal, state and local government web resources and services.